Regional Weather Roundup
Issued by NWS Kansas City/Pleasant Hill, MO

Home | Current Version | Previous Version | Graphics & Text | Print | Product List | Glossary Off
Versions: 1 2 3 4 5 6 7 8 9 10 11 12 13 14 15 16 17 18 19 20 21 22 23 24 25 26 27 28 29 30 31 32 33 34 35 36 37 38 39 40 41 42 43 44 45 46 47 48 49 50

000
ASUS43 KEAX 230210
RWREAX

WEATHER ROUNDUP FOR EASTERN KANSAS AND NORTHWEST MISSOURI
NATIONAL WEATHER SERVICE KANSAS CITY/PLEASANT HILL MO
900 PM CDT FRI MAY 22 2015

KSZ040-057-103>105-MOZ028-029-037-043-230300-
...KANSAS CITY METROPOLITAN AREA...

CITY           SKY/WX    TMP DP  RH WIND       PRES   REMARKS
K.C. INTL      CLOUDY    61  50  67 SE8       30.20S
K.C. DOWNTOWN  CLOUDY    64  49  57 E7        30.19S
LEES SUMMIT    CLOUDY    60  52  74 E5        30.21R
OLATHE - IXD   CLOUDY    61  52  72 E5        30.20R
OLATHE - OJC   CLOUDY    60  51  72 E6        30.19R
LAWRENCE       CLOUDY    60  53  77 SE5       30.20R

$$

MOZ001>008-011>017-020>025-030>033-038>040-044>046-053-054-230300-
...NORTHERN AND CENTRAL MISSOURI...

CITY           SKY/WX    TMP DP  RH WIND       PRES   REMARKS
ST. JOSEPH     CLOUDY    63  49  60 SE10      30.20R
MOSBY          CLOUDY    61  52  72 CALM      30.21S
WARRENSBURG    CLOUDY    59  54  82 NE6       30.21S
WHITEMAN AFB   CLOUDY    62  55  77 E2        30.21S
CLINTON        CLOUDY    63  55  77 E3        30.21S
SEDALIA        CLOUDY    64  53  67 E5        30.23S
WARSAW         NOT AVBL
CHILLICOTHE      N/A     65  55  70 CALM      30.23S
KIRKSVILLE     CLOUDY    59  56  89 CALM      30.23F

$$

MOZ041-047>049-056>058-063>065-088>090-097-230300-
...EASTERN AND SOUTHERN MISSOURI...

CITY           SKY/WX    TMP DP  RH WIND       PRES   REMARKS
ST. LOUIS INTL CLOUDY    69  49  48 NW5       30.25R
SPIRIT OF STL  CLOUDY    63  57  81 CALM      30.24R
COLUMBIA       CLOUDY    64  54  69 NE3       30.24R
JEFFERSON CITY CLOUDY    66  52  60 CALM      30.23R
ROLLA          CLOUDY    62  52  69 E6        30.22S
OSAGE BEACH    CLOUDY    63  54  72 CALM      30.22S
SPRINGFIELD    CLOUDY    62  47  57 SE8       30.21R
BRANSON        MOCLDY    59  48  67 SE10G16   30.22R
JOPLIN         CLOUDY    62  51  67 E6        30.19R
WEST PLAINS    CLOUDY    60  48  64 SE5       30.25R

$$

IAZ060-094-KSZ022-034>040-054-083-096-NEZ052-066-093-230300-
...KANSAS...SOUTHEAST NEBRASKA AND IOWA...

CITY           SKY/WX    TMP DP  RH WIND       PRES   REMARKS
TOPEKA         CLOUDY    60  50  69 SE6       30.19R
MANHATTAN      CLOUDY    60  48  64 SE7       30.16R
EMPORIA        CLOUDY    59  49  69 SE7       30.17R
CHANUTE        CLOUDY    61  51  70 E3        30.17S
WICHITA        DRIZZLE   56  54  93 SE8       30.15R FOG
OMAHA          CLOUDY    63  46  54 SE7       30.18R
LINCOLN        CLOUDY    61  45  55 SE10      30.18S
FALLS CITY     CLOUDY    61  49  64 E8        30.18S
LAMONI         PTCLDY    64  53  67 SE3       30.22S
DES MOINES     CLOUDY    65  45  48 SW7       30.21R

$$



USA.gov is the U.S. government's official web portal to all federal, state and local government web resources and services.